Location: Unspecified
(0.0000°N, 0.0000°E)
Time: 08:52:18
(UTC+02:00)

NATO 3D Rocket - Visible Passes

Search period start: 30 May 2016 00:00
Search period end: 09 June 2016 00:00
Orbit: 670 x 2296 km, 21.5° (Epoch: 28 May)

Date Brightness Start Highest point End Pass type
(mag) Time Alt. Az. Time Alt. Az. Time Alt. Az.
30 May 7.1 03:19:44 14° ENE 03:19:44 14° ENE 03:20:43 10° ENE visible
30 May 5.7 05:15:14 39° NNW 05:15:43 39° NNW 05:23:20 10° NE visible
30 May 6.3 07:16:04 10° NW 07:20:35 15° NNW 07:24:24 10° NNE visible
30 May 6.4 21:46:34 10° SW 21:56:42 29° SSE 21:58:28 28° SSE visible
30 May 7.2 23:51:32 10° SW 23:53:59 17° SW 23:53:59 17° SW visible
31 May 6.0 04:21:12 39° NNE 04:21:12 39° NNE 04:26:42 10° NE visible
31 May 6.2 06:16:42 13° WNW 06:22:47 22° NNW 06:28:31 10° NNE visible
31 May 6.5 20:48:54 10° SW 20:57:34 25° S 21:04:50 16° SE visible
31 May 6.5 22:53:25 10° SW 23:00:21 31° SSW 23:00:21 31° SSW visible
01 Jun 6.8 03:27:08 22° NE 03:27:08 22° NE 03:29:42 10° NE visible
01 Jun 6.1 05:22:37 28° NW 05:24:48 30° NNW 05:32:12 10° NE visible
01 Jun 6.6 07:26:29 10° NW 07:30:16 13° NNW 07:33:33 10° NNE visible
01 Jun 6.2 21:55:40 10° SW 22:06:09 34° SSE 22:06:47 34° SSE visible
02 Jun 7.2 00:00:07 10° SW 00:02:20 17° SW 00:02:20 17° SW visible
02 Jun 6.1 04:28:30 37° N 04:28:30 37° N 04:35:33 10° NE visible
02 Jun 6.5 06:25:45 10° WNW 06:32:18 19° NNW 06:37:34 10° NNE visible
02 Jun 6.3 20:58:17 10° SW 21:07:10 28° SSE 21:13:17 20° SE visible
02 Jun 6.4 23:02:07 10° SW 23:08:50 35° SSW 23:08:50 35° SSW visible
03 Jun 6.6 03:34:20 28° NE 03:34:20 28° NE 03:38:33 10° NE visible
03 Jun 6.4 05:29:49 20° NW 05:34:06 25° NNW 05:41:11 10° NNE visible
03 Jun 6.0 22:04:32 10° SW 22:15:20 41° SSE 22:15:24 41° SSE visible
04 Jun 7.2 00:08:47 10° WSW 00:10:58 18° WSW 00:10:58 18° WSW visible
04 Jun 7.3 02:40:09 14° NE 02:40:09 14° NE 02:41:10 10° NE visible
04 Jun 6.3 04:35:38 32° NNW 04:35:40 32° NNW 04:44:26 10° NE visible
04 Jun 6.7 06:35:50 10° NW 06:42:00 17° N 06:47:04 10° NNE visible
04 Jun 6.1 21:07:19 10° SW 21:16:32 33° SSE 21:22:04 24° ESE visible
04 Jun 6.2 23:10:50 10° SW 23:17:38 40° SW 23:17:38 40° SW visible
05 Jun7.801:45:55ENE01:45:55ENE01:13:11WSWvisible
05 Jun 6.6 03:41:24 31° NNE 03:41:24 31° NNE 03:47:21 10° NE visible
05 Jun 6.7 05:36:52 13° NW 05:43:39 22° NNW 05:50:25 10° NE visible
05 Jun 6.2 20:10:26 10° SW 20:17:58 26° SSE 20:27:32 10° ESE visible
05 Jun 5.7 22:13:18 10° SW 22:24:17 52° SSE 22:24:24 52° SSE visible
06 Jun 7.1 00:17:39 10° WSW 00:19:58 18° WSW 00:19:58 18° WSW visible
06 Jun 7.1 02:47:08 20° NE 02:47:08 20° NE 02:49:53 10° NE visible
06 Jun 6.6 04:42:36 26° NNW 04:45:01 27° NNW 04:53:29 10° NE visible
06 Jun 6.8 06:45:22 10° NW 06:51:51 18° N 06:57:08 10° NE visible
06 Jun 5.8 21:16:11 10° SW 21:25:38 41° SSE 21:31:15 29° ESE visible
06 Jun 6.1 23:19:40 10° WSW 23:26:50 46° SW 23:26:50 46° SW visible
07 Jun7.601:52:50NE01:52:50NE01:22:25Wvisible
07 Jun 6.6 03:48:19 31° N 03:48:19 31° N 03:56:13 10° NE visible
07 Jun 6.8 05:45:06 10° NW 05:53:24 21° N 06:00:06 10° NE visible
07 Jun 5.9 20:19:25 10° SW 20:27:16 32° SSE 20:37:35 10° E visible
07 Jun 5.4 22:22:08 10° WSW 22:33:06 66° SSE 22:33:49 65° SE visible
08 Jun 7.1 00:26:46 10° WSW 00:29:25 20° W 00:29:25 20° W visible
08 Jun 7.0 02:54:00 25° NNE 02:54:00 25° NNE 02:58:36 10° NE visible
08 Jun 6.8 04:49:29 19° NW 04:54:37 25° N 05:02:51 10° NE visible
08 Jun 6.7 06:54:18 10° NW 07:01:44 21° N 07:07:37 10° NE visible
08 Jun 5.5 21:25:02 10° SW 21:34:32 53° SSE 21:40:56 31° E visible
08 Jun 5.9 23:28:41 10° WSW 23:36:32 52° WSW 23:36:32 52° WSW visible
